Regional Weather Roundup
Issued by NWS Northern Indiana

Home | Current Version | Previous Version | Text Only | Print | Product List | Glossary Off
Versions: 1 2 3 4 5 6 7 8 9 10 11 12 13 14 15 16 17 18 19 20 21 22 23 24 25 26 27 28 29 30 31 32 33 34 35 36 37 38 39 40 41 42 43 44 45 46 47 48 49 50

000
ASUS43 KIWX 010300
RWRIWX

KIWX WEATHER ROUNDUP
NATIONAL WEATHER SERVICE NORTHERN INDIANA
1000 PM EST SAT JAN 31 2015

NOTE: "FAIR" INDICATES FEW OR NO CLOUDS BELOW 12,000 FEET WITH NO
SIGNIFICANT WEATHER AND/OR OBSTRUCTIONS TO VISIBILITY.

* THESE STATIONS ARE NOT UNDER NWS QUALITY CONTROL. THEY ALSO MAY NOT
  REPORT WEATHER SUCH AS PRECIPITATION OR FOG.

INZ001>027-010400-
NORTHERN INDIANA

CITY           SKY/WX    TMP DP  RH WIND       PRES   REMARKS
GARY*          RAIN      36  32  87 CALM      30.16F
SOUTH BEND     NOT AVBL
GOSHEN         LGT SNOW  33  29  85 SW5       30.16F FOG     WCI  29
ANGOLA*        CLOUDY    34  27  75 CALM      30.15F
FORT WAYNE     CLOUDY    34  29  82 SW8       30.18F WCI  27
PERU/GRISSOM   LGT SNOW  32  32 100 SW14      30.18F FOG     WCI  22

$$
INZ028>050-010400-
CENTRAL INDIANA

CITY           SKY/WX    TMP DP  RH WIND       PRES   REMARKS
LAFAYETTE      LGT SNOW  32  31  96 S6        30.20F FOG     WCI  26
KOKOMO*        CLOUDY    34  30  86 SW13      30.20F WCI  25
MUNCIE*        LGT SNOW  33  30  88 MISG      30.20F FOG
INDIANAPOLIS   LGT SNOW  30  29  96 S6        30.22F FOG     WCI  24

$$
MIZ043>046-050>051-056>058-064>065-071>073-077>080-010400-
SOUTHWEST LOWER MICHIGAN

CITY           SKY/WX    TMP DP  RH WIND       PRES   REMARKS
BATTLE CREEK   CLOUDY    32  24  72 CALM      30.17S
BENTON HARBOR  CLOUDY    31  26  82 CALM      30.17F
COLDWATER*     CLOUDY    32  27  83 CALM      30.16S
HILLSDALE*     CLOUDY    31  24  77 CALM      30.15S
HOLLAND        CLOUDY    32  24  72 N6        30.18F WCI  26
GRAND RAPIDS   CLOUDY    30  23  75 NW6       30.18S WCI  24
KALAMAZOO      CLOUDY    31  24  75 N6        30.17S WCI  25
STURGIS*       CLOUDY    32  28  86 CALM      30.15F
THREE RIVERS*  CLOUDY    32  27  83 CALM      30.16F

$$
OHZ001>008-015>018-024>025-010400-
NORTHWEST OHIO

CITY           SKY/WX    TMP DP  RH WIND       PRES   REMARKS
DEFIANCE       CLOUDY    35  27  72 SW3       30.19F
FINDLAY        CLOUDY    33  26  75 SW8       30.18F WCI  26
TOLEDO EXPRESS CLOUDY    29  25  85 CALM      30.18F
TOLEDO METCALF CLOUDY    30  23  75 S7        30.19F WCI  23
LIMA           CLOUDY    35  25  66 SW10      30.18F WCI  27

$$
AND FOR LAKE MICHIGAN COASTAL AND OPEN LAKE BUOY OBSERVATIONS

STATION/POSITION TEMP    WIND        PRES    VSBY  WAVE
                 AIR SEA DIR/SP/G                  HT/PER
                 (F)     (DEG/KT/KT) (MB)    (MI)  (FT/S)
CALUMET HARBOR    33      CALM  /  1   N/A
MICHIGAN CITY     34     220/  1/  1   N/A
SAINT JOSEPH      33      30/  2/  4 1022.4F

$$
&&


USA.gov is the U.S. government's official web portal to all federal, state and local government web resources and services.